Theta_e
323 316 311 312 302 295 290 296 298 296 289 291 293 291 289 288 289 288 298 297 298 297 299 308 320 325 328 330 333 336 339 344 347 346 346 346 346 345 346 348 347 347 347 348 347 347 346 345 343
319 312 315 306 295 289 292 300 294 293 292 292 290 290 288 286 292 293 293 295 296 296 296 303 315 319 323 325 328 331 333 338 341 346 346 346 346 348 346 345 347 347 347 348 348 346 347 346 343
311 309 310 303 294 291 294 299 292 292 293 291 288 289 287 286 291 291 292 294 294 293 294 299 312 315 318 320 322 325 328 332 335 338 343 345 346 347 347 347 347 346 346 347 347 347 346 346 345
304 313 310 299 296 297 298 293 294 291 292 291 288 284 288 290 290 290 292 292 291 292 292 296 308 311 313 315 317 320 323 326 328 330 333 337 344 345 345 345 346 346 346 346 346 346 345 345 344
308 308 300 299 298 292 289 291 294 291 289 288 289 284 286 289 291 290 289 290 289 290 291 292 303 306 308 311 313 315 318 320 322 323 326 328 333 338 343 344 343 343 345 346 346 346 345 344 343
304 306 296 295 299 296 291 290 291 289 288 288 288 286 285 290 289 289 289 287 290 289 290 291 295 300 303 306 308 311 313 314 316 317 319 321 325 329 331 337 341 342 341 342 344 346 345 344 344
303 301 296 299 300 296 291 292 287 287 288 286 288 285 287 288 290 290 288 287 288 289 289 289 290 292 296 300 303 305 308 309 310 311 313 314 316 319 320 322 328 335 340 341 343 343 343 343 344
298 301 297 298 298 295 290 289 289 287 284 291 290 284 284 286 289 289 289 289 288 288 288 288 288 289 289 292 298 300 303 304 305 305 307 308 309 312 313 315 319 325 328 335 339 341 341 342 341
301 294 293 295 296 290 288 287 288 289 286 286 287 286 287 288 289 287 287 287 288 288 288 288 287 288 289 291 292 294 298 299 300 300 301 300 302 302 305 308 312 316 318 324 329 336 338 337 335
296 294 295 288 286 286 285 286 286 286 285 284 284 286 288 287 286 285 284 284 285 286 287 287 287 287 288 290 289 290 292 292 293 294 293 295 297 298 301 303 306 309 311 314 317 321 330 331 331
287 286 287 288 290 291 288 286 288 285 283 285 283 283 285 284 284 284 284 284 284 285 286 286 286 287 287 287 288 289 290 290 292 291 291 293 293 294 295 298 301 303 304 305 309 312 314 315 331
285 285 285 286 286 288 288 287 285 284 283 286 285 285 284 283 282 283 283 283 284 285 286 286 286 286 286 287 287 288 288 289 289 289 290 290 290 290 292 294 296 298 299 302 306 308 310 312 314
284 284 284 286 285 284 285 283 282 281 284 285 285 284 282 282 282 283 283 283 283 283 285 286 286 286 286 286 287 287 287 287 288 288 289 289 289 288 290 292 292 293 295 298 301 304 306 308 311
283 283 282 283 284 285 283 282 283 282 284 283 283 281 281 281 281 281 281 281 282 283 283 285 286 286 286 285 286 286 287 287 287 287 288 289 288 288 289 289 290 290 292 294 296 299 301 304 308
283 280 280 279 280 282 283 279 279 283 284 282 281 280 281 281 281 280 281 281 281 282 283 283 285 284 284 285 285 286 286 287 286 287 287 288 288 287 287 288 288 289 291 293 293 293 296 297 301
281 280 278 278 279 279 280 276 279 281 281 279 279 278 280 280 281 280 281 281 281 281 281 282 284 283 283 283 284 285 285 285 285 286 286 287 287 287 287 287 288 290 291 292 291 292 292 293 296
277 274 275 276 277 277 277 274 280 281 279 276 275 276 278 278 279 279 280 280 280 280 281 281 282 281 282 283 283 283 284 284 285 285 285 286 286 287 286 287 288 290 290 289 289 290 291 291 293
274 273 274 273 274 275 273 274 278 279 278 276 275 275 276 277 278 279 280 280 280 280 280 281 281 281 281 281 281 282 282 283 283 284 284 285 285 286 285 285 286 288 287 287 287 287 289 291 290
273 272 269 270 274 273 273 274 276 278 276 275 274 275 275 276 279 279 280 279 279 279 279 279 280 280 280 279 278 279 278 280 281 282 283 283 283 284 283 284 284 285 285 285 286 287 287 288 290
272 271 268 271 274 272 271 272 275 277 276 276 275 274 275 275 277 279 279 278 278 278 278 279 279 279 279 279 279 279 278 279 280 281 281 282 282 282 281 282 282 283 283 283 285 285 285 287 289
269 270 268 270 271 271 269 270 271 274 276 276 276 276 275 276 276 276 277 277 277 277 278 279 278 279 279 279 279 279 279 278 277 278 279 280 281 281 280 280 280 281 281 280 282 284 284 283 286
273 271 272 272 270 267 269 265 268 271 274 276 277 275 275 275 276 276 277 277 277 277 278 279 279 279 279 278 278 276 276 275 276 276 278 279 280 279 279 279 279 278 280 279 279 282 284 284 283
272 273 272 272 269 268 266 266 268 270 271 275 277 276 276 276 276 276 276 278 278 278 277 277 278 278 278 277 276 276 275 276 276 275 277 277 278 278 278 278 278 277 278 278 278 278 281 283 282
275 272 273 270 268 261 265 266 268 268 271 272 277 277 277 275 275 276 277 278 277 278 278 277 277 277 277 276 276 275 274 275 275 275 275 276 276 277 277 278 277 277 277 277 277 278 279 281 282
273 269 264 262 259 264 266 264 269 272 273 274 276 277 276 276 275 275 275 276 277 277 277 277 277 276 276 276 275 275 275 275 274 274 275 275 275 275 276 276 277 277 277 277 277 277 277 279 280
270 267 264 258 262 265 268 265 271 272 274 275 276 277 277 276 276 275 276 276 276 278 277 277 278 277 276 276 276 275 275 275 275 274 274 274 274 275 276 276 276 276 277 276 277 276 277 277 279
268 266 268 260 259 260 267 269 274 274 273 273 274 275 275 276 275 276 276 276 276 277 277 277 277 278 277 276 276 275 275 275 274 274 274 274 275 276 276 276 276 276 276 276 275 276 275 276 278
268 271 265 263 258 256 264 263 269 272 274 274 273 273 274 275 275 275 275 276 276 277 277 277 277 277 278 277 276 276 275 275 275 275 275 275 275 276 275 275 275 275 275 275 274 274 275 276 277
266 264 265 265 263 260 260 266 268 271 273 273 274 274 273 274 276 275 275 276 276 276 276 276 276 277 277 277 277 276 276 276 275 276 275 275 275 275 275 275 275 275 274 274 273 273 274 274 275
266 265 266 263 261 260 262 265 273 273 274 273 275 276 273 275 275 274 275 275 276 276 276 276 276 276 277 277 277 277 276 276 275 275 275 275 273 275 274 275 274 274 273 272 272 272 273 273 275
Wind_Speed
10 7 1 5 5 5 2 4 2 4 4 5 2 10 11 5 4 4 1 15 15 13 14 17 26 25 25 25 24 24 21 23 15 5 4 4 4 4 5 6 5 7 8 10 8 6 8 8 8
5 4 2 3 5 3 3 4 2 1 6 7 6 5 9 5 4 3 6 17 15 14 14 16 24 25 24 25 24 23 22 22 19 19 9 6 4 5 4 4 6 6 9 10 11 7 8 10 9
3 1 3 4 3 4 3 3 4 4 5 2 5 8 5 5 3 4 7 12 12 12 13 15 24 25 24 25 24 23 23 22 20 20 22 15 8 8 8 7 5 6 8 10 11 11 7 8 10
4 4 4 4 2 1 2 2 4 7 4 7 5 9 6 3 3 6 8 10 10 11 12 16 23 24 23 24 24 23 23 22 21 21 21 19 19 11 6 8 9 7 9 9 10 9 6 6 8
3 2 3 4 1 2 1 3 3 3 4 6 2 6 5 4 6 7 7 10 12 11 12 13 23 24 23 23 23 22 22 22 22 22 21 20 19 19 16 10 7 9 10 11 10 7 6 4 7
3 2 3 9 3 4 3 3 3 4 3 4 6 5 4 3 8 7 7 8 9 11 13 13 20 23 22 22 23 22 22 22 22 22 22 21 20 20 21 20 17 14 11 10 10 8 6 6 8
4 3 4 6 4 3 4 4 4 3 2 5 1 5 4 9 8 6 6 6 7 11 13 13 13 17 21 21 23 23 23 23 23 23 23 22 21 21 22 22 23 21 19 15 10 7 8 9 9
4 3 5 5 6 4 3 4 4 5 3 4 3 4 3 3 7 5 4 9 9 11 12 13 13 13 13 11 22 22 23 23 23 25 25 22 21 22 22 22 23 22 23 19 18 12 9 9 9
1 4 2 4 7 4 2 4 3 5 5 6 5 4 4 4 4 5 7 11 11 12 13 13 13 13 12 11 14 17 21 22 23 21 24 17 11 14 15 18 22 22 24 23 23 18 17 10 9
4 4 5 1 3 3 3 5 4 4 3 6 8 7 6 5 6 10 11 10 13 13 13 12 12 12 12 11 11 11 12 10 11 13 14 10 11 12 13 15 20 20 22 21 22 23 19 11 4
4 3 3 1 2 3 4 4 3 7 3 2 7 7 4 5 7 8 8 7 6 7 9 12 11 11 11 9 7 6 6 7 7 13 13 10 9 9 9 8 8 9 15 9 12 11 8 13 10
6 4 3 3 3 3 3 5 5 4 3 9 9 8 4 6 7 7 7 7 7 8 9 10 11 10 11 7 7 7 7 7 7 10 14 10 7 9 9 7 9 10 9 11 9 7 10 12 11
5 3 6 5 7 6 6 4 7 5 7 9 9 9 7 5 5 5 6 6 6 9 10 11 11 10 10 9 7 7 8 7 8 9 12 10 9 9 8 8 8 8 9 10 10 9 9 10 11
3 6 3 6 4 4 7 4 5 3 6 8 8 7 6 6 4 4 6 6 7 7 9 9 10 10 9 8 9 8 7 8 8 8 10 12 9 9 8 8 9 9 9 9 9 10 10 9 10
4 5 3 6 5 3 3 1 2 9 9 9 7 6 6 5 5 4 3 5 5 4 6 8 9 9 9 9 8 6 7 8 8 8 11 13 12 11 10 8 9 9 10 12 10 9 9 9 10
4 4 2 3 4 1 1 4 2 9 10 8 8 6 6 4 4 4 4 4 5 5 7 6 7 7 7 7 6 6 7 7 7 8 8 12 13 13 9 9 10 11 10 9 9 9 10 9 9
6 3 3 2 3 1 3 2 5 7 8 8 8 7 6 5 3 3 4 4 4 4 5 6 7 8 7 6 5 6 7 7 7 8 9 12 13 13 10 8 9 10 9 9 10 10 10 11 11
6 3 3 3 2 2 1 6 5 7 8 10 9 8 7 7 6 6 5 4 4 3 4 5 4 6 6 4 4 4 5 6 6 8 9 12 10 13 11 9 10 10 9 10 10 13 10 10 13
5 2 1 1 3 2 6 7 8 9 7 9 8 8 8 8 6 6 5 5 5 4 4 5 5 6 4 3 3 3 3 4 7 7 10 11 11 12 11 9 10 10 10 12 13 12 13 11 13
2 2 2 1 1 0 4 11 10 10 10 10 11 9 9 6 7 7 6 5 3 2 2 3 5 5 4 3 2 1 1 2 2 4 6 9 10 11 11 10 10 11 9 13 14 14 11 8 12
2 2 2 1 2 0 5 9 5 6 5 7 8 8 7 11 10 7 7 6 3 2 2 2 2 3 4 5 3 3 2 2 3 4 5 7 9 9 10 10 9 9 9 9 11 12 15 11 10
2 0 2 2 2 4 3 8 6 6 9 8 14 11 10 10 7 6 7 6 6 4 2 1 1 3 4 5 4 5 3 3 3 2 3 5 7 8 9 9 9 9 7 9 9 9 9 10 10
1 1 3 2 3 2 1 1 9 3 8 19 17 14 13 12 10 10 9 8 7 5 5 3 2 1 1 3 3 3 3 1 2 2 4 4 4 5 6 7 7 7 6 7 8 10 9 7 7
4 3 4 4 3 3 2 4 8 7 9 5 12 14 14 11 10 8 7 6 5 5 4 4 4 4 3 2 1 2 2 2 3 4 3 4 3 3 5 7 6 5 6 7 7 7 8 7 7
3 4 4 7 5 7 1 1 13 9 8 6 15 15 14 12 10 9 9 8 7 8 7 6 6 6 6 6 5 4 2 1 1 2 2 4 3 3 6 6 7 6 6 7 7 7 7 7 7
3 5 6 7 3 5 3 8 11 7 3 5 5 10 13 13 12 11 10 9 9 9 8 8 8 7 7 7 6 5 4 2 1 1 1 2 2 3 4 5 5 6 7 7 7 5 6 7 6
4 4 4 7 2 4 5 10 12 4 7 4 5 7 13 15 13 12 9 9 8 8 9 9 8 7 6 7 5 5 4 4 3 2 1 2 3 4 5 4 5 6 6 7 7 5 7 7 7
5 3 4 3 1 5 6 7 9 5 4 6 7 9 9 10 12 9 8 9 7 7 7 7 7 7 6 6 5 5 5 5 4 3 3 2 3 3 5 5 6 6 6 7 7 6 7 7 6
2 1 3 2 4 6 2 9 8 6 4 7 8 7 8 10 12 10 8 7 7 5 7 7 7 7 6 5 5 6 5 6 5 4 4 3 2 3 3 4 6 7 8 8 8 8 7 9 9
3 6 6 6 6 2 2 14 1 5 5 5 7 7 6 6 8 7 7 7 7 7 6 7 6 6 6 5 5 6 6 5 5 5 5 3 3 2 3 3 5 6 8 8 9 10 9 10 11
Wind_Direction
330 312 70 46 50 63 41 314 312 102 45 355 57 87 101 46 30 134 343 16 352 355 354 357 10 15 20 19 21 22 16 16 4 14 9 30 31 44 31 15 2 342 330 328 331 203 175 159 153
325 348 28 86 85 64 310 312 64 76 149 173 61 34 55 77 21 68 15 349 352 357 357 358 11 15 18 20 19 19 19 17 10 5 340 342 351 354 11 13 7 335 327 323 321 312 210 174 169
347 62 66 84 105 134 153 21 102 87 58 60 88 49 56 359 48 41 341 342 347 358 359 357 10 15 18 19 18 17 18 19 17 13 9 348 351 353 349 350 347 333 322 322 323 329 253 207 177
27 4 39 78 93 100 115 118 139 128 77 64 103 71 73 20 32 7 343 353 356 360 3 2 12 14 15 19 17 18 17 17 18 18 12 5 3 335 351 355 336 328 320 313 317 330 321 244 195
55 71 92 70 70 106 49 77 158 78 83 20 17 133 88 53 19 14 357 1 7 2 4 5 12 14 15 18 17 17 18 18 18 18 15 14 12 10 354 332 324 330 328 320 300 307 318 264 208
54 111 106 185 187 140 107 42 77 72 60 34 68 84 88 30 19 8 1 4 12 8 7 8 9 12 13 18 16 15 17 19 19 17 17 16 19 19 18 9 348 324 310 303 319 300 283 267 234
126 106 183 147 202 174 143 97 62 82 71 40 26 83 127 26 6 7 4 11 15 18 16 10 8 7 7 14 16 14 17 18 18 16 14 15 17 18 18 18 12 359 335 312 301 302 298 283 246
99 87 156 168 178 208 18 88 82 32 101 144 18 103 132 354 352 350 2 22 22 25 22 12 8 8 3 12 13 14 16 17 18 16 12 14 13 11 15 15 10 4 4 351 323 300 288 280 277
139 59 214 204 159 156 62 107 48 51 76 51 48 80 85 10 3 38 26 23 20 21 19 11 8 7 5 15 9 9 13 16 17 14 10 10 8 5 6 6 6 5 5 7 1 333 304 277 275
71 143 215 8 0 104 58 83 119 107 110 72 85 75 61 22 28 40 31 23 19 14 11 11 9 8 7 14 9 10 11 11 15 16 7 7 9 4 2 6 3 2 5 2 359 0 347 299 271
14 115 138 26 103 93 109 78 24 123 75 169 152 126 71 46 38 44 36 32 13 357 9 8 8 9 12 11 11 13 12 11 11 17 12 6 8 3 8 3 358 357 359 1 358 356 359 344 317
86 44 86 8 2 96 95 107 79 46 81 105 118 119 103 62 45 35 30 18 13 15 11 8 12 11 15 12 16 13 17 17 17 13 12 11 9 7 6 3 360 359 354 352 350 346 342 339 332
84 118 58 69 73 72 85 61 122 92 101 103 105 101 100 88 72 48 34 21 12 22 8 7 16 15 13 20 18 20 22 19 16 18 15 15 12 7 1 2 3 1 351 351 348 344 344 336 333
60 78 74 41 59 71 110 148 94 192 137 115 113 116 113 102 84 51 36 25 22 16 10 354 17 13 14 21 18 22 19 17 21 20 17 16 14 7 5 4 4 1 357 351 349 348 340 337 334
131 80 51 21 360 84 102 56 217 154 153 139 137 136 124 113 97 92 67 53 33 19 5 11 20 8 13 15 21 26 22 21 21 20 17 17 17 11 8 7 6 2 1 2 356 354 347 343 337
70 65 130 354 357 51 106 253 150 157 147 153 152 150 143 147 135 132 96 67 40 36 26 12 15 8 11 10 13 22 24 26 25 22 17 16 16 15 13 12 13 9 9 6 358 356 349 344 340
13 210 199 298 27 308 161 239 168 171 155 168 175 175 167 157 148 140 116 95 64 51 38 26 12 11 5 6 16 26 24 29 22 21 19 15 16 16 16 13 11 11 8 8 0 357 357 353 344
199 214 224 241 354 17 238 254 192 191 175 187 185 186 184 179 184 171 153 137 104 60 49 45 30 19 2 1 19 21 31 26 22 22 20 15 15 15 18 13 11 7 9 9 6 6 0 3 344
119 148 204 309 346 292 242 264 226 202 203 190 197 194 198 194 188 168 166 153 140 68 54 40 34 13 21 7 7 13 19 12 27 19 16 16 14 15 18 14 11 8 12 10 9 3 360 5 348
93 124 231 318 346 52 334 269 231 201 214 192 190 201 201 191 188 192 179 160 124 135 81 51 42 30 27 25 9 26 349 353 30 2 12 15 14 15 19 13 10 8 7 13 13 12 5 3 1
50 186 193 264 320 356 325 279 221 224 190 188 212 197 188 193 193 200 200 197 178 186 167 85 52 44 42 33 14 17 25 22 358 6 9 5 11 14 17 13 11 9 13 11 4 9 12 3 8
204 120 105 119 82 247 18 282 282 223 224 212 209 198 198 196 191 190 198 209 209 221 223 263 11 31 50 34 44 49 49 20 354 334 336 357 5 7 12 9 9 8 7 8 1 359 3 3 4
181 140 104 89 99 343 268 13 267 132 235 224 212 198 203 195 187 193 199 204 209 205 212 229 260 299 21 50 62 60 49 13 292 330 345 351 351 360 5 9 3 7 5 0 358 354 351 356 352
148 74 47 61 74 5 256 160 270 200 214 204 199 204 194 188 191 193 196 192 210 207 211 221 229 247 224 194 165 126 68 357 5 356 2 349 338 339 2 3 3 1 359 357 353 348 341 342 349
68 64 345 350 10 230 135 135 248 257 227 222 198 193 189 181 179 182 187 194 199 199 208 213 212 231 215 208 205 198 194 190 324 343 340 344 344 351 348 354 356 355 351 351 350 346 343 340 337
145 139 158 215 215 281 356 242 256 224 262 249 243 196 176 177 181 184 189 193 200 202 200 205 204 217 205 208 215 205 212 202 233 255 322 337 337 322 323 340 341 345 346 347 347 341 339 345 326
220 191 175 101 84 39 230 287 297 240 266 272 217 169 183 182 178 183 188 197 203 205 207 202 207 221 216 218 217 219 222 225 243 270 291 311 327 332 350 332 341 344 346 348 343 336 332 328 332
138 198 78 1 210 273 283 279 242 309 309 238 225 207 196 185 176 178 190 201 211 209 209 207 210 220 223 222 218 223 225 223 229 231 265 293 317 330 333 340 343 344 348 346 343 337 328 329 325
91 294 31 115 148 179 275 264 215 229 324 284 251 228 195 184 183 182 200 205 210 209 209 217 218 224 237 236 233 232 229 227 224 230 242 252 280 324 324 329 338 341 343 343 338 335 332 329 324
164 194 157 133 247 238 156 267 307 264 287 300 265 211 191 191 182 182 201 204 212 217 218 222 224 222 231 231 238 238 227 222 222 229 232 211 234 287 302 315 333 337 339 337 334 330 329 326 323